Location: Nairn
(57.5833°N, 3.8667°W)
Time: 01:28:03
(UTC+00:00)

Cosmos 2112 Rocket - Pass Details

Date: 07 August 2020
Orbit: 757 x 786 km, 74.0° (Epoch: 19 September)

Event Time Altitude Azimuth Distance (km) Brightness Sun altitude
Rises 01:49:22 0° 329° (NNW) 3,258 7.8 -13.9°
Reaches altitude 10° 01:51:47 10° 333° (NNW) 2,323 7.1 -13.7°
Maximum altitude 01:57:02 69° 56° (NE) 824 4.3 -13.5°
Drops below altitude 10° 02:02:14 10° 140° (SE) 2,292 6.2 -13.2°
Sets 02:04:36 0° 143° (SE) 3,212 6.9 -13.1°
